Lid_Strength_Index
5 5 5 5 4 4 3 4 3 2 2 2 2 2 1 1 1 1 2 1 3 6 4 3 3 5 5 5 8 6 7 6 6 9 10 10 10 9 9 9 9 11 14 13 11 13 13 5 5 9 7 5 5 4
5 5 5 5 4 4 3 3 3 2 2 2 2 1 1 1 1 2 4 1 2 5 5 2 2 1 2 2 5 4 6 6 7 9 9 9 10 8 9 12 7 12 10 12 11 11 6 5 6 4 4 4 5 4
5 5 5 5 4 4 4 3 3 3 2 2 1 1 1 1 1 2 3 1 3 5 5 4 4 1 0 1 1 5 5 4 5 4 7 8 11 8 11 10 10 8 7 11 10 8 7 6 5 4 4 4 4 4
5 5 5 4 4 4 4 3 3 3 2 1 1 1 1 2 2 2 2 1 3 5 9 6 2 2 0 1 1 2 3 3 3 5 7 9 11 6 9 8 9 7 8 10 10 8 7 5 4 4 5 4 3 3
5 5 4 4 4 4 3 3 2 2 2 1 1 1 2 2 2 1 0 1 1 5 8 7 4 2 2 2 2 2 3 3 5 7 8 9 7 7 7 7 8 6 8 11 12 7 7 6 5 4 4 5 4 3
5 5 4 4 4 4 3 3 2 2 2 2 1 2 2 2 2 1 4 0 0 2 7 10 4 4 3 3 2 3 3 4 4 6 7 6 4 7 10 10 6 5 4 5 7 6 5 4 4 3 4 4 4 4
5 5 5 4 4 4 3 3 2 2 2 2 2 2 2 3 1 3 4 1 1 1 6 9 7 4 2 3 4 4 3 5 5 6 7 6 6 7 9 11 6 5 5 5 4 4 5 5 5 4 4 4 4 4
5 5 4 4 4 3 3 2 2 2 2 2 2 2 2 2 2 2 0 0 -0 3 5 9 8 6 3 6 7 4 6 5 6 6 6 7 6 7 11 7 5 4 4 4 4 4 4 4 4 4 4 4 5 5
5 5 4 4 4 3 3 2 2 2 2 2 2 2 2 2 3 2 -0 -0 -1 3 8 8 10 11 3 6 5 5 6 10 6 9 7 7 9 10 7 6 5 5 5 5 4 5 4 4 4 4 5 5 6 5
5 5 5 4 4 3 3 2 2 3 2 2 2 3 5 2 1 -0 2 4 5 4 5 8 5 9 5 7 8 8 7 10 12 9 6 9 9 6 5 5 4 4 4 4 5 5 5 5 4 4 5 5 4 4
5 4 4 4 3 3 2 2 2 3 2 1 3 4 1 0 2 4 7 8 7 9 6 6 6 8 5 9 9 7 9 9 13 10 10 12 12 7 5 4 4 4 3 4 3 3 3 3 4 5 4 4 4 4
4 4 4 4 3 2 2 3 3 2 1 3 2 0 1 4 6 8 9 7 8 10 6 7 6 6 6 5 8 8 10 10 14 8 11 13 9 7 6 5 4 4 3 3 3 4 4 3 4 4 4 4 3 3
4 4 4 3 3 3 3 3 3 3 2 -0 3 5 6 6 12 11 12 8 9 6 5 5 7 6 6 6 8 9 12 13 8 12 13 11 8 6 6 5 5 4 3 3 3 3 3 4 3 4 4 4 3 3
4 4 4 3 3 2 3 2 1 1 1 5 7 12 8 9 8 7 7 6 4 4 5 4 6 7 6 8 9 12 10 9 13 15 14 9 7 6 6 5 5 5 5 4 4 4 4 4 4 4 3 3 3 3
4 4 4 3 2 2 1 1 1 -0 2 6 6 11 8 5 4 4 3 4 3 3 4 5 5 5 8 9 9 10 13 14 12 13 10 7 6 6 5 4 4 5 4 4 4 4 5 4 4 4 3 2 2 2
3 3 1 1 1 1 2 1 -1 0 3 5 5 7 5 6 6 5 4 4 3 3 4 4 6 8 9 9 11 12 13 14 11 8 6 6 6 5 5 4 4 4 4 4 3 4 4 4 4 3 3 2 2 2
4 1 1 1 2 2 2 0 1 4 4 5 6 4 4 4 5 5 4 4 2 4 6 6 9 10 7 10 12 10 11 9 7 6 5 5 6 5 4 4 4 3 3 4 4 3 3 2 2 3 4 2 2 2
1 1 1 2 1 0 0 1 3 5 6 5 6 5 4 3 4 4 3 2 3 4 5 7 5 8 10 11 11 8 6 5 5 5 5 4 4 4 4 4 4 3 3 3 3 3 3 3 3 4 3 2 2 2
1 1 2 2 1 1 3 3 3 6 5 4 4 3 3 3 2 3 2 3 2 3 4 5 9 9 9 7 7 6 5 5 6 4 4 4 4 4 4 4 3 4 3 3 3 3 3 3 3 2 2 2 3 2
2 2 2 1 2 2 5 4 2 5 6 4 4 4 4 5 5 5 4 4 4 5 6 7 6 6 6 5 4 4 4 4 4 5 5 4 4 3 3 3 3 3 3 2 2 3 3 3 2 2 2 2 3 3
0 -0 0 -0 1 2 3 4 5 4 4 5 4 4 4 4 5 5 4 3 5 5 6 4 5 4 3 3 3 3 3 3 4 4 5 5 4 3 4 3 3 3 3 3 3 3 3 3 2 2 2 2 2 2
0 1 0 0 2 3 3 2 4 3 5 5 4 4 5 6 6 4 3 6 6 5 4 4 4 3 4 4 3 2 2 2 3 3 4 3 4 4 4 3 3 3 3 3 3 3 4 3 3 2 3 3 3 3
1 0 2 2 5 6 7 2 5 5 7 6 5 6 6 6 4 2 5 5 5 3 2 3 3 2 3 2 2 2 2 3 3 4 3 3 3 3 3 3 3 3 3 3 2 3 3 4 3 3 2 2 2 3
2 3 5 6 6 8 4 6 4 5 5 6 6 8 7 7 3 5 7 6 4 2 3 3 3 3 3 3 3 3 3 3 2 3 2 3 3 3 2 3 2 1 2 2 2 2 2 2 4 3 3 2 3 3
7 7 6 10 5 7 7 7 6 7 7 6 7 7 6 5 7 8 8 6 4 4 3 2 3 3 4 3 3 3 1 2 3 3 2 2 2 2 3 2 2 1 1 2 3 2 2 1 2 2 3 2 2 2
11 6 9 6 7 7 7 8 7 8 7 7 7 7 5 6 8 9 8 4 4 3 3 3 3 3 3 2 3 3 2 1 1 3 2 2 2 2 3 3 3 2 0 1 1 2 2 2 2 2 2 2 3 2
10 7 5 3 5 6 6 5 6 6 7 7 6 6 6 9 10 9 5 2 3 2 1 1 2 2 2 2 1 1 1 1 1 1 0 0 0 1 1 2 3 2 1 0 0 1 1 2 2 2 2 2 1 1
5 5 7 5 6 5 7 6 6 7 6 4 5 7 7 7 6 4 3 2 1 1 1 1 0 1 1 1 1 1 1 1 1 1 0 1 0 0 0 0 0 5 0 0 0 1 1 0 1 2 1 2 1 1
5 4 4 6 6 6 5 6 6 5 4 6 7 7 6 3 2 2 2 1 1 1 2 2 2 1 1 1 1 1 1 1 3 3 4 4 2 1 0 0 0 0 0 0 7 3 1 1 1 1 1 1 1 1
5 3 5 5 6 7 6 4 4 3 2 3 3 4 5 3 1 1 1 1 2 2 2 1 1 2 2 2 2 2 1 1 1 2 3 3 2 1 0 0 0 0 0 0 1 1 4 2 3 1 1 1 1 1
3 4 5 5 6 5 4 3 3 2 2 3 3 4 4 3 2 1 2 1 1 1 2 2 2 1 2 2 2 2 2 1 0 0 1 1 0 0 0 0 0 0 0 1 0 1 1 1 1 1 1 1 1 2
4 5 6 7 6 4 3 5 4 4 4 4 4 4 4 5 6 3 1 2 1 2 2 2 2 2 1 0 1 0 5 1 0 0 0 0 0 0 0 0 0 0 1 1 1 1 2 2 1 1 1 2 1 1
5 5 5 6 5 6 4 4 5 5 5 5 5 4 4 4 6 3 1 0 1 1 1 1 1 0 0 0 0 1 2 -0 2 5 5 5 5 4 1 0 0 1 1 1 1 1 2 2 1 1 1 1 1 1